MIDAS 3 DEB, 6215

Orbit data source: Space-Track

MIDAS 3 DEB, 6215 is space debris in LEO originally from a launch on Wed, 12 Jul 1961 UTC launched from the Air Force Western Test Range (AFWTR). Debris objects in space refer to the collection of defunct objects orbiting the Earth. Examples of debris include non-operational satellites, rocket bodies, and fragments generated from explosions, collisions, or faulty payload assembly.

Loading next visibility...
Identifier
6215, 1961-018E
Orbit
LEO
Country
Flag of USUS
Related business
Manufacturer
Unknown
Mission
Spacecraft
Bus & Motor
Unknown
Mass
Unknown
Launch date (UTC)
1961-07-12 (64 years ago)
Launch vehicle
Unknown
Launch site
Air Force Western Test Range (AFWTR)
Object type
Payload
Rocket body
Debris
Shape & HBR
Unknown shape, 1.1 m
Radar Cross Section
Medium (>0.1 m² and <1 m²)

Expand to show TLE details & history
Last TLE update: 2 weeks ago

TLE from 2 weeks ago
0 MIDAS 3 DEB
1 06215U 61018E   25340.58511462  .00000008  00000-0  23532-2 0  9991
2 06215  91.1090 195.2385 0064627  58.1024 302.6115  8.90942314362766
Epoch: 2025-12-06T14:02Z
TLE epoch observation values (Epoch: 2025-12-06T14:02:33.903Z)
Latitude
0.00001°
Longitude
-91.01351°
Altitude
3,418.992 km
Speed
6.39 km/s
True Right ascension
13h 00m 57s
True Declination
0° 00' 00"
Sunlit
Object was in daylight at epoch
Visualization orbit readout
Latitude
Unknown
Longitude
Unknown
Altitude
Unknown
Speed
Unknown
Apparent Right ascension
Unknown
Apparent Declination
Unknown
Sunlit
N/A
Visualization observer readout
Local Sidereal Time
03:51:03
Azimuth
Unknown
Elevation
Unknown
Doppler factor
Unknown
Orbital elements
Apogee altitude
3,511.974 km
Perigee altitude
3,384.962 km
Semi-major axis
9,826.605 km
Eccentricity
0.00646
Inclination
91.109°
RAAN
195.2385°
Arg. of periapsis
58.1024°
True anomaly
301.98497°
Mean anomaly
302.6115°
Eccentric anomaly
302.29851°
Mean motion
2.22812 °/min
Orbital period
161.57 mins
BSTAR
0.0023532
Loading maneuver chart data...
Computing Atmospheric mass density...
Loading historical data...
Loading historical data...
Loading historical data...
Loading historical data...
Loading historical data...
Loading historical data...
Loading historical data...
Other satellites on launch #18 in the year 1961 (1961-07-12 UTC)

Documentation

Showing up to 5 results
|